Concord, CA

5:55 PM PST on December 04, 2016 (GMT -0800)
Buchanan

Weather History for KCCR - April, 2013

Change the Weather History Date:

Saturday, April 6, 2013

  Actual Average Record
Temperature  
Mean Temperature 60 °F 57 °F  
Max Temperature 67 °F 68 °F 87 °F (2016)
Min Temperature 53 °F 46 °F 37 °F (2012)
Degree Days  
Heating Degree Days 5    
Month to date heating degree days 34  
Since 1 July heating degree days 2267  
Cooling Degree Days 0    
Month to date cooling degree days 0  
Year to date cooling degree days 0  
Growing Degree Days 10 (Base 50)    
Moisture  
Dew Point 50 °F    
Average Humidity 73    
Maximum Humidity 93    
Minimum Humidity 52    
Precipitation  
Precipitation T in - 0.29 in (2001)
Month to date precipitation 0.46  
Year to date precipitation 1.86  
Since 1 July precipitation 11.50  
Sea Level Pressure  
Sea Level Pressure 30.14 in    
Wind  
Wind Speed 6 mph (SW)    
Max Wind Speed 16 mph    
Max Gust Speed 18 mph    
Visibility 10 miles    
Events      
T = Trace of Precipitation, MM = Missing Value Source: NWS Daily Summary

Daily Weather History Graph

Daily Weather History Graph

Search for Another Location

Airport or City:

Trip Planner

Search our weather history database for the weather conditions in past years. The results will help you decide how hot, cold, wet, or windy it might be!

Date:

Astronomy

Apr. 06, 2013 Rise Set
Actual Time 6:45 AM PDT 7:36 PM PDT
Civil Twilight 6:18 AM PDT 8:02 PM PDT
Nautical Twilight 5:47 AM PDT 8:34 PM PDT
Astronomical Twilight 5:14 AM PDT 9:07 PM PDT
Moon 4:28 AM PDT (4/6) 4:13 PM PDT (4/6)
Length of Visible Light 13h 44m
Length of Day
12h 50m
Waning Crescent, 14% of the Moon is Illuminated
Apr 6
Waning Crescent
Apr 10
New
Apr 18
First Quarter
Apr 25
Full
May 2
Last Quarter

Hourly Weather History & Observations

Time (PDT) Temp. Dew Point Humidity Pressure Visibility Wind Dir Wind Speed Gust Speed Precip Events Conditions
12:38 AM 53.6 °F 48.2 °F 82% 30.18 in 10.0 mi West 4.6 mph - N/A   Mostly Cloudy
12:53 AM 54.0 °F 48.9 °F 83% 30.14 in 10.0 mi West 3.5 mph - N/A   Mostly Cloudy
1:08 AM 53.6 °F 48.2 °F 82% 30.18 in 10.0 mi West 5.8 mph - N/A   Mostly Cloudy
1:53 AM 54.0 °F 48.9 °F 83% 30.14 in 10.0 mi SW 3.5 mph - N/A   Overcast
2:24 AM 53.6 °F 48.2 °F 82% 30.18 in 10.0 mi SW 5.8 mph - N/A   Mostly Cloudy
2:53 AM 54.0 °F 48.9 °F 83% 30.14 in 10.0 mi WSW 4.6 mph - N/A   Mostly Cloudy
3:53 AM 54.0 °F 50.0 °F 86% 30.12 in 10.0 mi SW 5.8 mph - N/A   Overcast
4:53 AM 54.0 °F 51.1 °F 90% 30.12 in 10.0 mi SSW 3.5 mph - N/A   Overcast
5:51 AM 53.6 °F 51.8 °F 94% 30.17 in 10.0 mi SSW 3.5 mph - 0.00 in   Overcast
5:53 AM 54.0 °F 51.1 °F 90% 30.13 in 10.0 mi SSW 3.5 mph - 0.00 in   Overcast
6:53 AM 54.0 °F 50.0 °F 86% 30.13 in 10.0 mi SSW 4.6 mph - 0.00 in   Scattered Clouds
7:53 AM 55.0 °F 50.0 °F 83% 30.13 in 10.0 mi SSW 6.9 mph - N/A   Overcast
8:53 AM 55.9 °F 50.0 °F 80% 30.14 in 10.0 mi SW 9.2 mph - N/A   Overcast
9:40 AM 57.2 °F 51.8 °F 82% 30.18 in 10.0 mi South 11.5 mph - N/A   Overcast
9:53 AM 57.9 °F 51.1 °F 78% 30.14 in 10.0 mi SSW 9.2 mph - N/A   Overcast
10:53 AM 60.1 °F 52.0 °F 75% 30.14 in 10.0 mi SSW 15.0 mph - N/A   Overcast
11:53 AM 60.1 °F 52.0 °F 75% 30.15 in 10.0 mi South 9.2 mph - N/A   Overcast
12:53 PM 61.0 °F 52.0 °F 72% 30.15 in 10.0 mi SW 10.4 mph - N/A   Overcast
1:53 PM 63.0 °F 52.0 °F 67% 30.13 in 10.0 mi SSW 4.6 mph - N/A   Overcast
2:53 PM 66.9 °F 50.0 °F 54% 30.11 in 10.0 mi SW 8.1 mph - N/A   Mostly Cloudy
3:00 PM 66.2 °F 50.0 °F 56% 30.15 in 10.0 mi SSW 4.6 mph - N/A   Mostly Cloudy
3:53 PM 66.0 °F 48.0 °F 52% 30.11 in 10.0 mi NW 4.6 mph - N/A   Mostly Cloudy
4:53 PM 66.0 °F 52.0 °F 60% 30.09 in 10.0 mi SW 8.1 mph - N/A   Partly Cloudy
5:53 PM 63.0 °F 51.1 °F 65% 30.09 in 10.0 mi SW 6.9 mph - N/A   Clear
6:53 PM 60.1 °F 48.9 °F 67% 30.09 in 10.0 mi WSW 6.9 mph - N/A   Clear
7:53 PM 57.0 °F 48.9 °F 74% 30.10 in 10.0 mi West 9.2 mph - N/A   Clear
8:53 PM 55.9 °F 48.9 °F 77% 30.11 in 10.0 mi Calm Calm - N/A   Clear
9:53 PM 53.1 °F 48.9 °F 86% 30.12 in 10.0 mi South 6.9 mph - N/A   Clear
10:53 PM 54.0 °F 48.9 °F 83% 30.13 in 10.0 mi Calm Calm - N/A   Mostly Cloudy
11:21 PM 53.6 °F 48.2 °F 82% 30.18 in 10.0 mi SW 5.8 mph - N/A   Overcast
11:46 PM 53.6 °F 48.2 °F 82% 30.17 in 10.0 mi South 9.2 mph - N/A   Scattered Clouds
11:53 PM 53.1 °F 48.0 °F 83% 30.13 in 10.0 mi South 8.1 mph - N/A   Partly Cloudy